EHI
5 8 14 17 16 10 5 2 0 0 0 0 0 0 0 0 0 0 0 0 0 0 0 0 0 1 3 4 3 1 0 0 0 0 0 0 0 0 0 0 0 0 0
7 9 14 17 15 10 5 2 0 0 0 0 0 0 0 0 0 0 0 0 0 0 0 0 1 2 3 3 2 1 0 0 0 0 0 0 0 0 0 0 0 0 0
9 10 14 17 16 10 5 2 1 0 0 0 0 0 0 0 0 0 0 0 0 0 1 1 1 2 3 2 1 0 0 0 0 0 0 0 0 0 0 0 0 0 0
11 11 13 16 15 11 7 3 1 0 0 0 0 0 0 0 0 0 0 0 0 0 1 2 2 2 2 1 0 0 0 0 0 0 0 0 0 0 0 0 0 0 0
10 10 12 15 15 12 8 3 1 0 0 0 0 0 0 0 0 0 0 0 0 0 0 2 2 1 1 0 0 0 0 0 0 0 0 0 0 0 0 0 0 1 1
10 10 13 16 15 11 8 4 1 0 0 0 0 0 0 0 0 0 1 1 0 0 0 1 2 1 0 0 0 0 0 0 0 0 0 0 0 0 0 0 0 1 2
11 11 14 17 14 11 8 6 3 1 0 0 0 0 0 0 1 1 2 2 1 0 0 1 1 0 0 0 0 0 0 0 0 0 0 0 0 0 0 0 0 1 2
14 14 14 14 12 9 8 7 5 2 0 0 0 0 1 1 2 2 2 2 1 0 0 0 0 0 0 0 0 0 0 0 0 0 0 0 0 0 0 0 0 1 2
15 15 13 10 8 7 7 7 6 3 1 1 1 1 2 3 2 1 1 1 1 0 0 0 0 0 0 0 0 0 0 0 0 0 0 0 0 0 0 0 0 0 1
14 14 12 8 6 6 5 6 5 4 3 2 2 2 3 3 2 1 0 1 1 0 0 0 0 0 0 0 0 0 0 0 0 0 0 0 0 0 0 0 0 0 0
12 13 12 8 6 5 4 4 4 5 4 3 1 1 1 1 1 0 0 0 0 0 0 0 0 0 0 0 0 0 0 0 0 0 0 0 0 0 0 0 0 0 0
11 12 11 8 6 4 3 3 4 5 4 3 1 0 0 0 0 0 0 0 0 0 0 0 0 0 0 0 0 0 0 0 0 0 0 0 0 0 0 1 0 0 0
9 10 10 8 5 4 3 3 4 5 5 3 1 0 0 0 0 0 0 0 0 0 0 0 0 0 0 0 0 0 0 0 0 0 0 0 0 0 0 0 0 0 0
7 8 9 8 6 4 4 4 5 5 4 3 2 1 0 0 0 0 0 0 0 0 0 0 0 0 0 0 0 0 0 0 0 0 0 0 0 0 0 0 0 0 0
6 7 8 7 5 5 5 4 5 4 3 3 2 1 0 0 0 0 0 1 1 1 0 0 0 0 0 0 0 0 0 0 0 0 0 0 0 0 1 1 0 0 0
4 6 8 6 4 4 5 5 4 3 3 3 2 1 0 0 0 0 0 1 1 1 0 0 0 0 0 0 0 0 0 0 0 0 0 0 0 0 0 1 1 1 1
2 4 6 5 4 4 5 5 4 3 3 3 2 1 0 0 0 0 0 0 0 0 0 0 0 0 0 0 0 0 0 0 0 0 0 0 0 0 0 1 2 2 2
1 2 3 4 4 3 4 5 5 4 4 3 3 1 0 0 0 0 0 0 0 0 0 0 0 0 0 0 0 0 0 0 0 0 0 0 0 0 0 0 1 2 1
0 0 1 3 3 3 3 4 5 5 4 4 3 2 1 0 0 0 0 0 0 0 0 0 0 0 0 0 0 0 0 0 0 0 0 0 0 0 0 0 0 0 0
0 0 0 1 2 3 3 4 4 5 5 4 3 3 2 1 1 0 0 0 0 0 0 0 0 0 0 0 0 0 0 0 0 0 0 0 0 0 0 0 0 0 0
0 0 0 0 1 3 3 3 4 5 6 5 4 4 3 2 1 0 0 0 0 0 0 0 0 0 0 0 0 0 0 0 0 0 0 0 0 0 0 0 0 0 0
0 0 0 0 1 2 3 3 4 5 6 6 6 5 4 3 1 0 0 0 0 0 0 0 0 0 0 0 0 0 0 0 0 0 0 0 0 0 0 0 0 0 0
0 0 0 1 2 2 3 4 5 5 5 4 5 6 5 5 3 1 0 0 0 0 0 0 0 0 0 0 0 0 0 0 0 0 0 0 0 0 0 0 0 0 0
0 0 0 1 2 3 4 5 5 5 4 3 4 5 5 5 4 2 1 0 0 0 0 0 0 0 0 0 0 0 0 0 0 0 0 0 0 0 0 0 0 0 0
0 1 1 1 1 2 4 5 5 5 4 3 3 4 4 3 3 2 1 0 0 0 0 0 0 0 0 0 0 0 0 0 0 0 0 0 0 0 0 0 0 0 0
0 1 2 1 0 1 3 4 5 4 4 3 3 3 3 3 2 1 0 0 0 0 0 0 0 0 0 0 0 0 0 0 0 0 0 0 0 0 0 0 0 0 0
Wind_Speed
6 7 8 8 9 9 9 9 9 9 9 9 9 10 10 10 11 11 12 11 12 12 13 14 14 14 15 15 15 16 15 15 16 16 15 15 16 17 17 16 15 12 17
7 8 9 9 9 9 9 9 9 9 9 9 9 9 10 10 11 11 12 12 12 13 13 14 15 15 15 15 15 15 15 14 14 14 13 13 14 16 17 17 16 12 17
8 9 8 9 9 9 9 9 9 9 9 9 9 10 10 10 10 11 12 12 13 13 14 14 15 15 15 15 14 14 14 13 13 13 11 7 10 16 17 17 16 17 17
7 8 7 9 9 9 9 9 9 10 9 9 9 10 10 10 11 11 12 12 13 13 14 14 15 15 15 14 14 13 13 12 12 12 8 8 8 14 16 16 16 17 16
7 7 7 10 10 9 9 9 9 10 10 9 9 10 10 11 11 12 13 13 13 13 13 14 15 15 14 14 13 13 12 12 12 11 9 8 7 14 16 16 16 16 16
7 7 8 10 10 10 9 10 10 10 10 10 10 10 11 11 12 12 13 13 13 13 14 14 15 14 14 13 13 13 13 12 10 8 8 8 7 14 16 16 15 16 16
6 6 7 10 10 10 9 10 10 10 10 10 10 11 11 12 12 12 13 13 13 13 14 15 15 15 14 14 14 14 13 12 9 8 8 7 9 15 16 16 16 16 16
7 6 6 9 10 9 9 9 10 10 10 10 10 11 11 11 12 12 12 12 13 14 14 14 14 14 14 14 14 14 13 12 10 9 8 7 12 16 16 16 16 16 15
7 6 5 5 7 9 9 9 10 10 10 10 10 10 11 11 11 12 12 12 13 13 14 14 13 14 14 14 13 13 13 13 8 7 8 6 13 15 16 16 16 16 16
6 5 5 5 5 5 5 8 9 10 10 10 10 10 10 10 10 11 11 12 12 13 13 13 13 13 13 13 12 12 12 10 8 7 5 8 14 15 16 16 16 16 16
4 4 4 4 4 4 4 6 7 9 9 9 8 8 7 5 6 7 9 11 12 13 13 13 13 12 11 10 11 11 9 5 7 6 5 11 14 15 15 15 15 15 16
3 3 3 4 4 4 3 3 3 4 5 5 4 4 4 4 5 6 9 10 11 11 11 11 11 9 7 4 7 8 5 6 6 5 6 12 13 14 14 14 14 14 15
4 3 3 3 3 3 2 2 2 2 3 4 4 4 4 4 4 4 3 4 5 7 5 6 5 4 4 4 4 5 6 5 4 4 6 12 12 13 13 13 13 14 14
4 3 3 3 3 3 2 2 2 2 3 3 3 4 4 3 3 3 3 3 3 2 3 3 3 4 5 5 5 6 7 5 4 4 6 12 12 12 12 12 13 13 13
3 3 2 3 3 3 2 2 2 2 3 3 3 3 4 4 4 3 3 3 3 2 3 3 4 4 5 5 5 6 7 7 6 5 5 12 12 12 12 12 12 12 13
3 3 2 2 3 3 2 2 2 3 3 3 3 3 4 3 4 4 3 3 3 2 2 3 4 4 4 4 6 6 6 6 6 5 5 7 13 13 13 12 12 12 12
3 3 3 3 2 3 3 2 2 3 3 3 3 4 4 4 4 4 3 3 3 2 3 3 4 4 4 5 6 6 5 5 5 6 6 5 6 11 13 12 12 12 12
3 3 3 3 3 3 3 3 2 2 3 3 3 3 4 4 4 4 3 3 3 3 3 3 4 4 4 4 4 4 4 4 5 6 5 5 4 5 8 12 12 11 11
3 3 3 3 3 3 3 3 3 3 3 3 3 3 4 4 5 4 3 3 3 3 3 3 4 4 4 4 4 4 4 4 4 5 5 5 5 5 4 8 11 11 10
2 3 3 3 3 3 3 2 2 2 2 3 3 3 4 4 5 4 4 4 4 3 3 4 4 4 4 4 4 5 4 3 4 4 4 4 4 5 5 5 5 6 10
2 2 2 3 3 2 2 2 3 2 2 2 3 4 4 4 4 5 4 5 4 3 4 5 5 5 4 3 4 3 3 3 4 3 3 3 4 4 4 4 3 3 4
2 2 2 3 3 3 2 2 2 2 2 2 3 3 4 4 4 4 5 4 4 4 4 5 5 4 2 2 3 3 2 2 2 2 2 2 3 3 3 4 3 4 3
1 2 2 2 2 2 2 2 2 2 2 2 3 2 3 4 4 4 5 4 4 4 4 4 5 4 4 2 1 3 3 2 0 1 1 2 2 2 2 2 3 3 3
1 1 1 2 2 2 3 2 3 3 2 2 3 2 3 4 4 4 4 4 4 3 4 4 4 3 4 3 1 1 2 4 3 1 1 1 2 2 2 2 2 2 2
2 1 1 1 2 2 2 3 3 2 2 1 3 3 3 3 4 4 4 4 4 3 4 4 3 3 3 3 2 1 1 1 2 3 2 1 1 1 1 1 1 1 2
1 1 1 1 1 2 3 3 3 3 3 3 3 3 3 2 3 4 4 4 4 3 4 4 4 4 3 3 2 2 2 2 2 2 2 2 1 1 1 0 0 1 1
Wind_Direction
112 126 134 126 118 112 111 109 103 96 93 92 91 87 83 79 75 72 70 77 78 77 77 76 77 76 75 73 72 72 72 73 72 69 68 70 71 71 71 69 69 70 73
120 128 133 124 121 115 114 111 105 100 96 94 93 90 86 83 79 76 73 81 82 80 78 77 76 75 74 73 73 72 73 73 72 69 66 66 69 72 71 69 70 72 72
117 127 132 122 120 116 115 114 110 104 99 95 93 91 88 86 83 80 77 81 82 81 80 79 77 75 73 72 73 73 73 71 70 68 62 60 69 72 73 72 72 72 72
115 122 131 124 121 118 116 117 112 106 102 98 94 91 89 89 87 84 81 79 81 80 79 79 78 75 73 71 72 72 71 67 66 65 64 59 65 74 74 73 73 72 72
105 113 122 123 121 118 116 118 114 109 105 101 97 93 91 90 89 86 83 79 77 78 78 79 77 75 72 71 71 70 67 64 66 66 64 58 59 72 73 73 73 73 73
98 106 116 115 117 118 115 118 115 112 108 104 101 97 93 91 90 87 84 82 79 77 79 78 77 75 72 70 69 64 60 60 64 68 64 59 61 70 72 73 73 74 73
96 99 118 114 113 114 115 122 119 115 111 107 103 99 95 92 90 88 85 84 83 82 81 79 77 75 73 71 67 60 55 57 66 68 65 61 66 72 72 71 71 72 73
96 96 110 112 109 113 110 116 120 117 113 109 105 101 98 94 92 89 88 86 86 85 83 81 80 77 74 71 65 58 53 58 68 70 66 62 70 73 72 70 70 70 72
89 94 95 102 107 109 109 107 113 113 111 109 106 102 98 94 93 92 90 89 87 86 84 83 80 78 75 69 63 57 55 55 61 66 68 61 70 73 72 70 71 70 70
88 94 100 95 91 97 109 108 111 109 107 105 102 99 96 94 93 92 91 90 88 87 85 83 79 77 73 67 60 53 53 56 62 60 59 64 69 72 72 71 70 69 70
89 92 102 99 94 88 104 113 114 111 107 105 101 97 95 96 94 89 88 90 90 88 86 83 80 75 69 62 56 48 47 60 66 61 57 67 72 73 71 70 70 69 68
119 111 105 101 100 99 101 118 120 121 119 111 110 106 100 93 89 90 84 86 88 86 84 80 77 70 64 55 51 50 51 59 66 63 60 66 72 73 72 70 69 69 68
140 126 111 107 106 102 101 119 115 118 120 112 110 108 104 99 99 92 91 87 85 82 81 78 70 60 60 58 55 56 54 56 63 62 57 66 71 74 74 72 71 70 69
139 135 121 110 107 102 101 123 118 127 121 114 112 112 113 108 101 97 90 85 81 83 84 73 71 67 64 61 62 62 61 61 63 64 57 63 70 75 76 76 74 73 70
131 133 136 126 121 113 105 121 111 120 122 119 117 114 113 116 117 109 100 91 82 78 83 78 74 72 69 64 64 65 66 66 64 64 58 60 65 71 74 76 76 75 73
145 146 142 136 129 119 118 119 116 118 119 122 118 116 114 116 118 113 105 98 90 85 84 84 82 75 69 69 66 63 65 65 63 65 63 57 59 64 67 69 72 73 72
157 151 156 146 133 133 134 126 116 123 124 127 126 120 114 115 117 116 115 110 104 95 89 89 81 77 76 72 66 61 63 65 67 64 62 58 54 56 60 65 66 68 68
148 150 159 153 145 141 136 125 117 127 127 129 131 126 119 118 120 119 121 120 116 111 103 105 99 91 81 74 66 59 59 61 65 65 63 59 53 52 54 59 60 63 64
148 151 150 140 145 141 131 126 120 126 130 132 131 130 130 128 128 125 128 127 120 116 110 112 104 103 97 84 75 66 58 58 61 66 65 64 59 56 54 55 54 55 60
116 136 145 142 141 137 129 121 117 117 124 129 137 139 138 135 135 129 130 130 127 126 120 121 116 102 104 101 85 71 62 62 63 64 66 67 64 60 52 50 47 46 51
96 111 146 149 148 140 135 138 141 148 150 142 143 142 141 138 140 136 132 132 131 139 137 132 124 116 111 112 94 78 57 59 68 59 67 68 66 61 56 53 47 44 41
122 130 141 147 149 141 126 134 141 143 154 153 144 147 145 144 146 143 141 144 143 137 135 139 135 129 133 137 121 119 97 33 24 47 69 80 72 62 59 55 50 49 46
157 170 170 144 134 130 121 109 104 96 94 126 140 152 153 148 149 148 151 149 151 148 152 152 151 142 149 161 133 132 141 175 135 357 48 75 76 69 64 60 59 51 51
182 163 151 151 141 128 129 140 149 150 157 176 161 153 152 147 146 146 149 151 155 152 155 159 154 151 146 159 142 79 129 141 142 150 325 39 71 77 77 57 60 65 58
154 147 144 157 148 145 150 159 157 148 136 131 137 141 149 151 148 149 150 149 155 157 157 157 157 159 157 158 151 134 105 109 125 144 191 260 7 2 42 74 88 78 72
98 122 155 157 175 165 168 171 173 161 148 148 145 154 155 156 154 153 155 155 157 155 159 161 165 167 167 153 148 145 149 149 168 154 158 170 201 290 324 36 123 115 93